{"data":{"norad_id":65685,"epoch":"2026-09-20T05:12:10.732032Z","epoch_age_seconds":133228,"freshness":"FRESH","line1":"1 65685U 25212K   26263.21679088  .00020746  00000+0  62318-3 0  9993","line2":"2 65685  53.1589 158.7767 0001229  95.0742 265.0401 15.34413617 57022","mean_motion":15.34413617,"eccentricity":0.0001229,"inclination_deg":53.1589,"raan_deg":158.7767,"arg_perigee_deg":95.0742,"mean_anomaly_deg":265.0401,"bstar":0.00062318,"rev_number":5702,"period_min":93.846925238803,"perigee_km":461.82203362128,"apogee_km":463.50350220424,"semimajor_km":6840.7997679128,"source":"CELESTRAK","updated_at":"2026-09-21T09:00:35.686373Z"}}